Weather History for Jefferson City, MO

Change the Weather History Date:

Tuesday, December 11, 2012

  Actual Average Record
Temperature  
Mean Temperature -1 °C -  
Max Temperature 6 °C 7 °C 26 °C (1949)
Min Temperature -8 °C -5 °C -17 °C (1962)
Degree Days  
Heating Degree Days 35    
Moisture  
Dew Point -8 °C    
Average Humidity 66    
Maximum Humidity 88    
Minimum Humidity 38    
Precipitation  
Precipitation 0.00 mm - - ()
Sea Level Pressure  
Sea Level Pressure 1020 hPa    
Wind  
Wind Speed 3 km/h (South)    
Max Wind Speed 10 km/h    
Max Gust Speed -    
Visibility 16 kilometers    
Events      
Averages and records for this station are not official NWS values.
T = Trace of Precipitation, MM = Missing Value Source: NWS Daily Summary

Daily Weather History Graph

Daily Weather History Graph

Search for Another Location

Airport:

Trip Planner

Search our weather history database for the weather conditions in past years. The results will help you decide how hot, cold, wet, or windy it might be!

Date:

Astronomy

Dec. 11, 2012 Rise Set
Actual Time 7:16 AM CST 4:47 PM CST
Civil Twilight 6:46 AM CST 5:17 PM CST
Nautical Twilight 6:13 AM CST 5:50 PM CST
Astronomical Twilight 5:41 AM CST 6:22 PM CST
Moon 5:12 AM CST (12/11) 3:26 PM CST (12/11)
Length of Visible Light 10h 30m
Length of Day
9h 31m
Waning Crescent, 4% of the Moon is Illuminated
Dec 11
Waning Crescent
Dec 13
New
Dec 19
First Quarter
Dec 28
Full
Jan 4
Last Quarter

Hourly Weather History & Observations

Time (CST) Temp. Windchill Dew Point Humidity Pressure Visibility Wind Dir Wind Speed Gust Speed Precip Events Conditions
12:53 AM -8.3 °C - -10.0 °C 88% 1018.7 hPa 16.1 km Calm Calm - N/A   Clear
1:53 AM -7.2 °C -10.0 °C -9.4 °C 85% 1018.4 hPa 16.1 km East 5.6 km/h / 1.5 m/s - N/A   Clear
2:53 AM -7.2 °C - -9.4 °C 85% 1018.4 hPa 14.5 km Calm Calm - N/A   Clear
3:53 AM -6.7 °C - -8.9 °C 85% 1018.5 hPa 16.1 km Calm Calm - N/A   Clear
4:53 AM -6.7 °C -10.3 °C -8.9 °C 85% 1018.5 hPa 16.1 km ESE 7.4 km/h / 2.1 m/s - N/A   Clear
6:53 AM -6.1 °C -8.8 °C -9.4 °C 78% 1018.8 hPa 16.1 km ESE 5.6 km/h / 1.5 m/s - N/A   Clear
7:53 AM -6.1 °C - -8.9 °C 81% 1019.1 hPa 16.1 km Calm Calm - N/A   Clear
8:53 AM -3.9 °C -7.1 °C -7.8 °C 75% 1019.5 hPa 16.1 km SSW 7.4 km/h / 2.1 m/s - N/A   Clear
9:53 AM -1.1 °C -4.4 °C -7.8 °C 61% 1020.1 hPa 16.1 km WSW 9.3 km/h / 2.6 m/s - N/A   Clear
10:53 AM 0.6 °C -1.8 °C -7.8 °C 54% 1020.1 hPa 16.1 km SW 7.4 km/h / 2.1 m/s - N/A   Clear
11:53 AM 2.8 °C 0.2 °C -8.3 °C 44% 1019.7 hPa 16.1 km WSW 9.3 km/h / 2.6 m/s - N/A   Clear
12:53 PM 4.4 °C - -7.8 °C 41% 1019.1 hPa 16.1 km Calm Calm - N/A   Clear
1:53 PM 5.6 °C - -7.8 °C 38% 1018.8 hPa 16.1 km Calm Calm - N/A   Clear
2:53 PM 6.1 °C - -7.2 °C 38% 1018.5 hPa 16.1 km Calm Calm - N/A   Clear
3:53 PM 6.1 °C 5.2 °C -6.7 °C 40% 1018.8 hPa 16.1 km SSW 5.6 km/h / 1.5 m/s - N/A   Clear
4:53 PM 4.4 °C 3.2 °C -7.2 °C 43% 1018.9 hPa 16.1 km South 5.6 km/h / 1.5 m/s - N/A   Clear
5:53 PM 2.2 °C - -6.7 °C 52% 1019.7 hPa 16.1 km Calm Calm - N/A   Clear
6:53 PM -0.6 °C - -5.6 °C 69% 1020.4 hPa 16.1 km Calm Calm - N/A   Clear
7:53 PM -1.7 °C - -6.1 °C 72% 1021.1 hPa 16.1 km Calm Calm - N/A   Clear
8:53 PM -2.8 °C - -6.7 °C 75% 1021.4 hPa 16.1 km Calm Calm - N/A   Clear
9:53 PM -2.8 °C - -6.1 °C 78% 1021.7 hPa 16.1 km Calm Calm - N/A   Clear
10:53 PM -3.9 °C - -7.2 °C 78% 1022.3 hPa 16.1 km Calm Calm - N/A   Clear
11:53 PM -3.9 °C - -6.7 °C 81% 1022.7 hPa 16.1 km Calm Calm - N/A   Clear